This demonstration page uses our WeatherBlox Daily Observations layout. Learn more.

Left ArrowRight Arrow

Hourly Observations for November 27, 2018

Temp ( °F °C ) Dew Point ( °F °C ) Humidity (%) Winds ( mph kmh ) Pressure ( in mb ) Visibility ( mi km ) Precip ( " mm )
12:53 am 00:53 Clear 37 2.8 19 -7.2 48 48 E 5 7 30.16 1021 10 16 0.00 0.00
1:53 am 01:53 Clear 31 -0.6 19 -7.2 61 61 ENE 3 6 30.16 1021 10 16 0.00 0.00
2:53 am 02:53 Clear 29 -1.7 19 -7.2 66 66 NE 3 6 30.17 1022 10 16 0.00 0.00
3:53 am 03:53 Clear 27 -2.8 19 -7.2 72 72 N 6 9 30.16 1021 10 16 0.00 0.00
4:53 am 04:53 Clear 26 -3.3 19 -7.2 75 75 N 5 7 30.15 1021 10 16 0.00 0.00
5:53 am 05:53 Clear 25 -3.9 19 -7.2 78 78 N 8 13 30.18 1022 10 16 0.00 0.00
6:53 am 06:53 Clear 25 -3.9 19 -7.2 78 78 NNW 3 6 30.19 1022 10 16 0.00 0.00
7:53 am 07:53 Sunny 25 -3.9 19 -7.2 78 78 N 6 9 30.21 1023 10 16 0.00 0.00
8:53 am 08:53 Sunny 35 1.7 22 -5.6 59 59 Calm 30.19 1022 10 16 0.00 0.00
9:53 am 09:53 Sunny 45 7.2 22 -5.6 40 40 SW 3 6 30.16 1022 10 16 0.00 0.00
10:53 am 10:53 Sunny 53 11.7 22 -5.6 30 30 W 6 9 30.14 1021 10 16 0.00 0.00
11:53 am 11:53 Sunny 58 14.4 22 -5.6 25 25 WSW 10 17 30.11 1020 10 16 0.00 0.00
12:53 pm 12:53 Sunny 63 17.2 22 -5.6 21 21 W 12 19 30.05 1018 10 16 0.00 0.00
1:53 pm 13:53 Sunny 66 18.9 22 -5.6 19 19 SW 8 13 30.01 1016 10 16 0.00 0.00
2:53 pm 14:53 Sunny 67 19.4 22 -5.6 18 18 SW 10 17 29.98 1015 10 16 0.00 0.00
3:53 pm 15:53 Sunny 69 20.6 21 -6.1 16 16 SW 12 19 29.96 1015 10 16 0.00 0.00
4:53 pm 16:53 Sunny 68 20 20 -6.7 16 16 SW 12 19 29.95 1014 10 16 0.00 0.00
5:53 pm 17:53 Clear 60 15.6 22 -5.6 23 23 SW 7 11 29.96 1015 10 16 0.00 0.00
6:53 pm 18:53 Clear 51 10.6 23 -5 33 33 SSW 9 15 29.98 1015 10 16 0.00 0.00
7:53 pm 19:53 Clear 47 8.3 25 -3.9 42 42 S 7 11 29.99 1016 10 16 0.00 0.00
8:53 pm 20:53 Clear 44 6.7 25 -3.9 47 47 SSE 9 15 29.98 1015 10 16 0.00 0.00
9:53 pm 21:53 Clear 47 8.3 29 -1.7 50 50 SE 8 13 29.96 1015 10 16 0.00 0.00
10:53 pm 22:53 Clear 43 6.1 31 -0.6 63 63 SE 10 17 29.95 1014 10 16 0.00 0.00
11:53 pm 23:53 Clear 41 5 31 -0.6 67 67 SE 6 9 29.93 1014 10 16 0.00 0.00

Powered by AerisWeather